Weather History for Brooksville, FL

Change the Weather History Date:

Monday, March 11, 2013

  Actual Average Record
Temperature  
Mean Temperature 66 °F -  
Max Temperature 79 °F 74 °F 86 °F (2006)
Min Temperature 54 °F 49 °F 30 °F (2004)
Cooling Degree Days 1    
Growing Degree Days 16 (Base 50)    
Moisture  
Dew Point 55 °F    
Average Humidity 67    
Maximum Humidity 93    
Minimum Humidity 45    
Precipitation  
Precipitation 0.00 in - - ()
Sea Level Pressure  
Sea Level Pressure 30.02 in    
Wind  
Wind Speed 6 mph (SSE)    
Max Wind Speed 17 mph    
Max Gust Speed 23 mph    
Visibility 10 miles    
Events      
Averages and records for this station are not official NWS values.
T = Trace of Precipitation, MM = Missing Value Source: NWS Daily Summary

Daily Weather History Graph

Daily Weather History Graph

Search for Another Location

Airport:

Trip Planner

Search our weather history database for the weather conditions in past years. The results will help you decide how hot, cold, wet, or windy it might be!

Date:

Astronomy

Mar. 11, 2013 Rise Set
Actual Time 7:43 AM EDT 7:36 PM EDT
Civil Twilight 7:20 AM EDT 7:59 PM EDT
Nautical Twilight 6:52 AM EDT 8:27 PM EDT
Astronomical Twilight 6:25 AM EDT 8:54 PM EDT
Moon 7:18 AM EDT (3/11) 7:42 PM EDT (3/11)
Length of Visible Light 12h 39m
Length of Day
11h 52m
Waning Crescent, 0% of the Moon is Illuminated
Mar 11
Waning Crescent
Mar 11
New
Mar 19
First Quarter
Mar 27
Full
Apr 3
Last Quarter

Hourly Weather History & Observations

Time (EDT) Temp. Dew Point Humidity Pressure Visibility Wind Dir Wind Speed Gust Speed Precip Events Conditions
12:53 AM 62.1 °F 53.1 °F 72% 30.13 in 10.0 mi ESE 4.6 mph - N/A   Partly Cloudy
1:53 AM 57.9 °F 52.0 °F 81% 30.12 in 10.0 mi Calm Calm - N/A   Clear
2:53 AM 55.0 °F 52.0 °F 89% 30.11 in 10.0 mi Calm Calm - N/A   Clear
3:53 AM 54.0 °F 51.1 °F 90% 30.07 in 10.0 mi East 3.5 mph - N/A   Clear
4:53 AM 54.0 °F 52.0 °F 93% 30.05 in 10.0 mi ESE 3.5 mph - N/A   Clear
5:53 AM 55.0 °F 53.1 °F 93% 30.03 in 10.0 mi ESE 5.8 mph - N/A   Clear
6:53 AM 57.9 °F 54.0 °F 87% 30.05 in 10.0 mi East 5.8 mph - N/A   Clear
7:53 AM 57.0 °F 54.0 °F 89% 30.06 in 10.0 mi SE 5.8 mph - N/A   Clear
8:53 AM 62.1 °F 55.9 °F 80% 30.05 in 10.0 mi ESE 8.1 mph - N/A   Partly Cloudy
9:53 AM 68.0 °F 57.0 °F 68% 30.06 in 10.0 mi SE 11.5 mph - N/A   Mostly Cloudy
10:53 AM 72.0 °F 57.0 °F 59% 30.06 in 10.0 mi SSE 17.3 mph 21.9 mph N/A   Clear
11:53 AM 73.9 °F 57.0 °F 55% 30.06 in 10.0 mi SE 15.0 mph 20.7 mph N/A   Mostly Cloudy
12:53 PM 75.9 °F 55.9 °F 50% 30.06 in 10.0 mi SSE 12.7 mph - N/A   Mostly Cloudy
1:53 PM 78.1 °F 55.0 °F 45% 30.04 in 10.0 mi South 13.8 mph 23.0 mph N/A   Mostly Cloudy
2:53 PM 78.1 °F 55.9 °F 46% 30.00 in 10.0 mi South 9.2 mph - N/A   Mostly Cloudy
3:53 PM 78.1 °F 55.0 °F 45% 29.96 in 10.0 mi South 12.7 mph - N/A   Mostly Cloudy
4:53 PM 78.1 °F 55.0 °F 45% 29.97 in 10.0 mi SSW 15.0 mph - N/A   Partly Cloudy
5:53 PM 75.0 °F 55.0 °F 50% 29.95 in 10.0 mi SSW 12.7 mph - N/A   Clear
6:53 PM 73.9 °F 55.0 °F 52% 29.95 in 10.0 mi SSW 11.5 mph - N/A   Clear
7:53 PM 71.1 °F 55.9 °F 59% 29.93 in 10.0 mi South 5.8 mph - N/A   Clear
8:53 PM 69.1 °F 55.9 °F 63% 29.94 in 10.0 mi South 3.5 mph - N/A   Clear
9:53 PM 68.0 °F 55.9 °F 65% 29.94 in 10.0 mi SSE 5.8 mph - N/A   Clear
10:53 PM 66.9 °F 55.9 °F 68% 29.96 in 10.0 mi South 3.5 mph - N/A   Clear
11:53 PM 66.9 °F 57.0 °F 70% 29.94 in 10.0 mi Calm Calm - N/A   Clear